[[{"header":{"parameterUnit":"m.s-1","parameterCategory":1,"la1":30.2991,"la2":30.254,"lo1":-89.0895,"lo2":-89.0444,"dy":0.0017,"dx":0.0017,"nx":28,"ny":28,"refTime":"2024-07-19T03:00:00:Z","depth":0,"parameterNumber":2,"parameterNumberName":"U-component_of_WINDS"},"data":[0,0,0,0,0,0,0,0,0,0,0,0,0,0,0,0,0,0,0,0,0,0,0,0,0,0,0,0,0,0,0,0,0,0,0,0,0,0,0,0,0,0,0,0,0,0,0,0,0,0,0,0,0,0,0,0,0,0,-0.508,-0.5079,0,-0.4997,-0.4996,-0.4995,-0.4999,-0.5001,-0.5002,-0.5003,-0.4912,-0.4908,-0.4905,0,0,0,0,0,0,0,0,0,0,0,0,0,-0.5235,-0.5232,-0.508,-0.5079,-0.5078,-0.4997,-0.4996,-0.4995,-0.4999,-0.5001,-0.5002,-0.5004,-0.4913,-0.4909,-0.4905,0,0,0,0,0,0,0,0,0,0,0,0,0,-0.5161,-0.5231,-0.508,-0.5071,-0.5069,-0.4997,-0.4996,-0.4994,-0.4999,-0.5001,-0.5003,-0.5004,-0.4914,-0.4909,-0.4904,-0.4834,0,0,-0.4888,-0.4885,0,0,0,0,0,0,0,0,-0.5165,-0.5155,-0.5073,-0.5071,-0.5069,-0.5011,-0.5017,-0.494,-0.4999,-0.5025,-0.5003,-0.5005,-0.4943,-0.4935,-0.4915,-0.483,-0.4826,-0.4887,-0.4884,-0.4882,-0.488,0,0,0,0,0,0,0,-0.517,-0.5159,-0.5047,-0.5072,-0.507,-0.5068,-0.5059,-0.5002,-0.4975,-0.5023,-0.5023,-0.5014,-0.4942,-0.4921,-0.4913,-0.4825,-0.4887,-0.4883,-0.4879,-0.4877,-0.4671,-0.4669,0,0,0,0,0,0,-0.5179,-0.5163,-0.505,-0.5044,-0.5123,-0.5064,-0.5054,-0.5027,-0.4975,-0.4969,-0.5012,-0.5014,-0.4929,-0.492,-0.491,-0.482,-0.4882,-0.4877,-0.4874,-0.4673,-0.4671,-0.4668,0,0,0,0,0,0,-0.5182,-0.5169,-0.5053,-0.5104,-0.5089,-0.5059,-0.5029,-0.5025,-0.5003,-0.4967,-0.4961,-0.4996,-0.493,-0.4918,-0.4852,-0.4818,-0.4874,-0.4869,-0.4676,-0.4672,-0.4669,-0.4644,0,0,0,0,0,0,-0.5186,-0.517,-0.5145,-0.5103,-0.5086,-0.4999,-0.5027,-0.5022,-0.4995,-0.4997,-0.495,-0.4944,-0.493,-0.486,-0.4847,-0.4811,-0.4865,-0.4679,-0.4674,-0.467,-0.4647,-0.464,-0.4633,0,0,0,0,0,-0.5192,-0.5141,-0.5144,-0.513,-0.5055,-0.4997,-0.4987,-0.4974,-0.4992,-0.4965,-0.4941,-0.4946,-0.4824,-0.4853,-0.4838,-0.4801,-0.4681,-0.4676,-0.4671,-0.465,-0.4641,-0.4633,0,0,0,0,0,0,-0.5179,-0.5136,-0.5138,-0.5073,-0.5039,-0.4998,-0.4964,-0.4965,-0.4924,-0.4927,-0.491,-0.4899,-0.4832,-0.4811,-0.4844,-0.4727,-0.4754,-0.4746,-0.4744,-0.4735,-0.4728,-0.4733,-0.4861,0,0,0,0,0,-0.5169,-0.5127,-0.5091,-0.5037,-0.502,-0.4995,-0.4969,-0.4961,-0.4924,-0.4909,-0.4881,-0.4843,-0.4795,-0.4764,-0.4719,-0.4645,-0.4631,-0.4611,-0.4604,-0.4598,-0.459,-0.4543,-0.4532,-0.4651,-0.4651,-0.4652,0,0,-0.5147,-0.5118,-0.5093,-0.5033,-0.5006,-0.496,-0.4982,-0.4934,-0.4898,-0.4901,-0.4837,-0.4814,-0.477,-0.4698,-0.4665,-0.4678,-0.4555,-0.4592,-0.4588,-0.4582,-0.4537,-0.4526,-0.4516,-0.4648,-0.4649,-0.4649,0,0,-0.5082,-0.5059,-0.5008,-0.498,-0.4938,-0.4921,-0.4909,-0.4867,-0.4852,-0.4788,-0.4787,-0.4744,-0.4664,-0.4631,-0.4604,-0.4523,-0.4523,-0.4508,-0.447,-0.4425,-0.4415,-0.4407,-0.4373,-0.4362,-0.4501,-0.4501,-0.4501,0,-0.506,-0.4993,-0.4982,-0.4932,-0.4904,-0.4905,-0.4851,-0.4824,-0.4768,-0.4747,-0.4763,-0.4659,-0.463,-0.4548,-0.4528,-0.4507,-0.4489,-0.4512,-0.4418,-0.4409,-0.4401,-0.4368,-0.4356,-0.4499,-0.4499,-0.45,-0.45,0,-0.4964,-0.4917,-0.4882,-0.4828,-0.4796,-0.4745,-0.4723,-0.4691,-0.4685,-0.4665,-0.4596,-0.4561,-0.4506,-0.4487,-0.4482,-0.4402,-0.441,-0.4422,-0.4449,-0.4388,-0.4357,-0.4345,-0.4496,-0.4497,-0.4498,-0.4498,0,0,-0.489,-0.483,-0.4816,-0.479,-0.4742,-0.4704,-0.465,-0.4598,-0.4568,-0.453,-0.4481,-0.4412,-0.4421,-0.439,-0.438,-0.4341,-0.4272,-0.4356,-0.4355,-0.4338,-0.4176,-0.4164,-0.4151,-0.4273,-0.4271,-0.4269,-0.4178,0,-0.4817,-0.4724,-0.4711,-0.4628,-0.4581,-0.458,-0.4532,-0.4496,-0.4475,-0.443,-0.4407,-0.4356,-0.4375,-0.4355,-0.4316,-0.4289,-0.4238,-0.4296,-0.4223,-0.422,-0.4231,-0.4135,-0.4124,-0.404,-0.4166,-0.4164,-0.4163,0,-0.472,-0.4678,-0.459,-0.4545,-0.4525,-0.4483,-0.443,-0.4389,-0.4346,-0.4333,-0.4297,-0.4291,-0.423,-0.4261,-0.4175,-0.4214,-0.4183,-0.4165,-0.4161,-0.4151,-0.4186,-0.4118,-0.4014,-0.3999,-0.4144,-0.4146,-0.4147,0,-0.4669,-0.4591,-0.4526,-0.4505,-0.4451,-0.442,-0.4396,-0.4355,-0.4323,-0.4276,-0.4254,-0.4202,-0.4172,-0.4129,-0.4107,-0.4132,-0.402,-0.4051,-0.4004,-0.4004,-0.3978,-0.3979,-0.3863,-0.3965,-0.3965,-0.3966,-0.3966,0,-0.4587,-0.4532,-0.4502,-0.4462,-0.4399,-0.4383,-0.4319,-0.4295,-0.4258,-0.421,-0.4206,-0.4161,-0.4137,-0.4087,-0.4069,-0.3997,-0.3985,-0.3969,-0.3965,-0.3967,-0.3969,-0.3945,-0.3948,-0.3962,-0.3963,-0.3964,-0.3964,0,-0.4518,-0.4497,-0.4426,-0.438,-0.4367,-0.4322,-0.4281,-0.424,-0.4219,-0.4158,-0.4143,-0.4109,-0.4049,-0.4024,-0.3951,-0.3938,-0.3854,-0.3856,-0.3869,-0.3867,-0.3819,-0.3822,-0.368,-0.3658,-0.3779,-0.3778,-0.3777,0,-0.4466,-0.4423,-0.4372,-0.4341,-0.4315,-0.4265,-0.4232,-0.4213,-0.4178,-0.4122,-0.4087,-0.4027,-0.3979,-0.3882,-0.3849,-0.3791,-0.3789,-0.3743,-0.378,-0.3782,-0.3782,-0.3783,-0.3776,-0.3735,-0.3734,-0.3733,-0.3732,0,-0.4373,-0.4363,-0.4317,-0.4264,-0.4225,-0.4182,-0.4141,-0.4115,-0.4089,-0.4048,-0.3988,-0.395,-0.3874,-0.3813,-0.3753,-0.3724,-0.3721,-0.3721,-0.3706,-0.3707,-0.3714,-0.3704,-0.3846,-0.3724,-0.3724,-0.3725,-0.3725,-0.3726,-0.4307,-0.4267,-0.4224,-0.417,-0.4137,-0.4098,-0.4055,-0.4029,-0.3978,-0.3916,-0.3908,-0.3841,-0.3793,-0.3712,-0.3681,-0.3626,-0.3637,-0.3617,-0.3611,-0.3605,-0.36,-0.3726,-0.3616,-0.3616,-0.3616,-0.3616,-0.3616,0,-0.421,-0.4182,-0.4133,-0.4074,-0.4031,-0.4035,-0.3988,-0.395,-0.3892,-0.385,-0.3801,-0.3728,-0.3668,-0.3629,-0.3567,-0.353,-0.3527,-0.3514,-0.3515,-0.3507,-0.3596,-0.3613,-0.3517,-0.3517,-0.3517,-0.3517,-0.3518,-0.3518,-0.4154,-0.4085,-0.407,-0.3982,-0.3954,-0.389,-0.3862,-0.3823,-0.3788,-0.3708,-0.3658,-0.3634,-0.3591,-0.3525,-0.3468,-0.3458,-0.3433,-0.3418,-0.3408,-0.3491,-0.3501,-0.3511,-0.3526,-0.3414,-0.3414,-0.3322,-0.3322,-0.3321]},{"header":{"parameterUnit":"m.s-1","parameterCategory":1,"la1":30.2991,"la2":30.254,"lo1":-89.0895,"lo2":-89.0444,"dy":0.0017,"dx":0.0017,"nx":28,"ny":28,"refTime":"2024-07-19T03:00:00:Z","depth":0,"parameterNumber":3,"parameterNumberName":"V-component_of_WINDS"},"data":[0,0,0,0,0,0,0,0,0,0,0,0,0,0,0,0,0,0,0,0,0,0,0,0,0,0,0,0,0,0,0,0,0,0,0,0,0,0,0,0,0,0,0,0,0,0,0,0,0,0,0,0,0,0,0,0,0,0,-1.8827,-1.8827,0,-1.8751,-1.875,-1.8749,-1.8744,-1.8745,-1.8746,-1.8746,-1.8661,-1.8658,-1.8655,0,0,0,0,0,0,0,0,0,0,0,0,0,-1.896,-1.8958,-1.8828,-1.8827,-1.8826,-1.8751,-1.875,-1.8749,-1.8744,-1.8745,-1.8746,-1.8747,-1.8662,-1.8658,-1.8655,0,0,0,0,0,0,0,0,0,0,0,0,0,-1.8895,-1.8957,-1.8828,-1.8814,-1.8812,-1.8751,-1.875,-1.8749,-1.8743,-1.8745,-1.8746,-1.8747,-1.8663,-1.8659,-1.8654,-1.8599,0,0,-1.864,-1.8638,0,0,0,0,0,0,0,0,-1.8898,-1.889,-1.8817,-1.8815,-1.8813,-1.8758,-1.8765,-1.8698,-1.8743,-1.8769,-1.8746,-1.8748,-1.8692,-1.8685,-1.8667,-1.8595,-1.8592,-1.864,-1.8637,-1.8635,-1.8633,0,0,0,0,0,0,0,-1.8903,-1.8893,-1.8797,-1.8816,-1.8813,-1.8809,-1.8801,-1.8753,-1.8724,-1.8767,-1.8767,-1.8758,-1.8691,-1.8672,-1.8665,-1.859,-1.864,-1.8636,-1.8633,-1.8631,-1.8463,-1.8461,0,0,0,0,0,0,-1.8911,-1.8897,-1.8799,-1.8795,-1.886,-1.8805,-1.8797,-1.8774,-1.8725,-1.8718,-1.8757,-1.8758,-1.8679,-1.8671,-1.8662,-1.8591,-1.8635,-1.863,-1.8628,-1.8465,-1.8463,-1.8461,0,0,0,0,0,0,-1.8914,-1.8903,-1.8802,-1.8846,-1.8833,-1.8802,-1.8777,-1.8772,-1.8753,-1.8717,-1.8711,-1.8743,-1.868,-1.8669,-1.8614,-1.8588,-1.8628,-1.8624,-1.8467,-1.8464,-1.8462,-1.845,0,0,0,0,0,0,-1.8918,-1.8904,-1.8885,-1.8845,-1.883,-1.8759,-1.8775,-1.877,-1.8746,-1.8747,-1.8703,-1.8697,-1.868,-1.8621,-1.861,-1.8582,-1.8621,-1.8469,-1.8466,-1.8463,-1.8452,-1.8447,-1.8443,0,0,0,0,0,-1.8923,-1.8884,-1.8884,-1.8872,-1.8807,-1.8757,-1.8748,-1.8732,-1.8744,-1.8723,-1.8699,-1.8698,-1.8593,-1.8616,-1.8603,-1.8573,-1.847,-1.8466,-1.8463,-1.8455,-1.8448,-1.8443,0,0,0,0,0,0,-1.8921,-1.8879,-1.8878,-1.8827,-1.8796,-1.8757,-1.873,-1.8727,-1.869,-1.8692,-1.8671,-1.8661,-1.8606,-1.8585,-1.861,-1.8515,-1.8533,-1.8526,-1.8531,-1.8525,-1.852,-1.8525,-1.8617,0,0,0,0,0,-1.8915,-1.888,-1.8845,-1.8803,-1.8787,-1.8761,-1.8739,-1.8729,-1.8695,-1.8681,-1.8653,-1.8618,-1.8576,-1.855,-1.851,-1.845,-1.8437,-1.8423,-1.8418,-1.8414,-1.8408,-1.8369,-1.8361,-1.8448,-1.8448,-1.8449,0,0,-1.8901,-1.8874,-1.8854,-1.8801,-1.8776,-1.8737,-1.875,-1.871,-1.868,-1.8674,-1.8621,-1.8598,-1.8557,-1.8498,-1.8471,-1.8479,-1.8381,-1.841,-1.8407,-1.8402,-1.8364,-1.8356,-1.8348,-1.8446,-1.8446,-1.8447,0,0,-1.8856,-1.8834,-1.8794,-1.8768,-1.873,-1.8712,-1.8703,-1.8663,-1.8648,-1.8595,-1.8588,-1.855,-1.8481,-1.8451,-1.8426,-1.8365,-1.836,-1.8352,-1.8326,-1.8289,-1.8282,-1.8275,-1.8249,-1.824,-1.8347,-1.8347,-1.8347,0,-1.8843,-1.8788,-1.8774,-1.8733,-1.8708,-1.8702,-1.8659,-1.8634,-1.8584,-1.8565,-1.8575,-1.8484,-1.8457,-1.8388,-1.8373,-1.8355,-1.8339,-1.8357,-1.8284,-1.8278,-1.8272,-1.8246,-1.8237,-1.8346,-1.8346,-1.8346,-1.8346,0,-1.8771,-1.8733,-1.8705,-1.8657,-1.8629,-1.8587,-1.8563,-1.8536,-1.8527,-1.8507,-1.8449,-1.8415,-1.8367,-1.835,-1.8342,-1.8278,-1.8283,-1.8289,-1.8306,-1.8262,-1.8238,-1.8228,-1.8344,-1.8345,-1.8345,-1.8345,0,0,-1.8724,-1.8667,-1.8657,-1.8633,-1.8589,-1.8557,-1.8512,-1.8466,-1.8441,-1.8405,-1.8364,-1.8304,-1.8308,-1.828,-1.8267,-1.8235,-1.8182,-1.8243,-1.8242,-1.823,-1.8104,-1.8098,-1.8087,-1.818,-1.8178,-1.8177,-1.8106,0,-1.8671,-1.8595,-1.8579,-1.8511,-1.8472,-1.8465,-1.8425,-1.8391,-1.837,-1.8331,-1.8307,-1.8263,-1.8274,-1.8256,-1.8224,-1.8196,-1.8156,-1.8201,-1.8137,-1.8135,-1.8145,-1.8075,-1.8069,-1.8004,-1.8097,-1.8095,-1.8094,0,-1.86,-1.8563,-1.8492,-1.8448,-1.8431,-1.8397,-1.835,-1.8315,-1.8274,-1.8261,-1.8228,-1.8217,-1.8166,-1.8187,-1.8113,-1.8144,-1.8116,-1.8098,-1.8095,-1.8086,-1.811,-1.806,-1.7984,-1.7972,-1.808,-1.8081,-1.8082,0,-1.8568,-1.85,-1.8447,-1.8428,-1.8377,-1.8352,-1.8329,-1.829,-1.8261,-1.822,-1.82,-1.8153,-1.8126,-1.8087,-1.8062,-1.8081,-1.7988,-1.8009,-1.7972,-1.7972,-1.7951,-1.7952,-1.7865,-1.7939,-1.7939,-1.7939,-1.794,0,-1.8509,-1.8464,-1.8432,-1.8399,-1.8347,-1.8327,-1.8275,-1.8252,-1.8217,-1.8176,-1.8166,-1.8127,-1.8099,-1.8055,-1.8035,-1.7974,-1.7963,-1.7947,-1.7942,-1.7946,-1.7947,-1.7926,-1.7928,-1.7937,-1.7937,-1.7938,-1.7938,0,-1.8463,-1.844,-1.8381,-1.8338,-1.8325,-1.8288,-1.8249,-1.8214,-1.8193,-1.8141,-1.8127,-1.8092,-1.8039,-1.8011,-1.7945,-1.7931,-1.7861,-1.786,-1.7875,-1.7872,-1.7835,-1.7837,-1.7728,-1.7711,-1.78,-1.7799,-1.7799,0,-1.8426,-1.8391,-1.8343,-1.8316,-1.8293,-1.825,-1.822,-1.8198,-1.8167,-1.8115,-1.8086,-1.8033,-1.7989,-1.7904,-1.787,-1.7818,-1.7813,-1.7778,-1.7805,-1.7808,-1.7807,-1.7808,-1.7801,-1.7773,-1.7772,-1.7771,-1.7771,0,-1.836,-1.835,-1.8309,-1.8263,-1.8228,-1.819,-1.8152,-1.813,-1.8101,-1.8065,-1.8012,-1.7978,-1.7909,-1.7855,-1.7799,-1.7771,-1.7763,-1.7763,-1.775,-1.7753,-1.7761,-1.7751,-1.7858,-1.7765,-1.7765,-1.7766,-1.7766,-1.7766,-1.8315,-1.8282,-1.8242,-1.8195,-1.8164,-1.8128,-1.8092,-1.8066,-1.8021,-1.7965,-1.7954,-1.7896,-1.785,-1.7775,-1.7746,-1.7697,-1.7703,-1.7687,-1.7682,-1.7677,-1.7673,-1.7772,-1.7687,-1.7687,-1.7687,-1.7687,-1.7687,0,-1.8245,-1.8219,-1.8176,-1.8123,-1.8085,-1.8084,-1.8041,-1.8008,-1.7957,-1.7917,-1.7874,-1.7809,-1.7755,-1.7716,-1.766,-1.7627,-1.7622,-1.7613,-1.7613,-1.7605,-1.7673,-1.7687,-1.7618,-1.7618,-1.7618,-1.7618,-1.7618,-1.7618,-1.8205,-1.8147,-1.8131,-1.8056,-1.8029,-1.7973,-1.7948,-1.7912,-1.788,-1.7808,-1.7764,-1.774,-1.7697,-1.7637,-1.7586,-1.7575,-1.7553,-1.7543,-1.7531,-1.7594,-1.7602,-1.7609,-1.7622,-1.7539,-1.7539,-1.7467,-1.7467,-1.7466]}]]